Вернуться в каталог

PROBA-3 CSC

АктивенНаукаHEO
NORAD 62256·PAYLOAD·🇪🇺 EU

Запущен Dec 5, 2024 с Satish Dhawan Space Centre

Loading…

Ближайшие Пролёты (ближайшие 24 часа)

TLE

СвежийSource: Space-Track

Эпоха: Sep 12, 2026, 22:42 UTC

1 62256U 24233A   26255.94642930 -.00000121  00000-0  00000-0 0  9997
2 62256  59.7932  90.1694 7995479 207.9743  62.8726  1.22078259  7890

Отслеживайте PROBA-3 CSC в реальном времени с AllMySat

Download on the App Store